sat.trackr.live / text

‹ back to catalog

ARICA-2

NORAD 68796 · 2026-088E

PAYLOAD ACTIVE UNKNOWN

§ Identity

Operator
Country
JPN
Launch date
2026-04-23
Launch site
RLLB
Launch vehicle
Mass (kg)
RCS (m²)

External: N2YO · Heavens-Above · Gunter

§ Orbital elements

Epoch: 2026-09-19T16:04:35.380416Z

Period
95.42 min
Inclination
97.5195°
Eccentricity
0.0016871
Mean motion
15.09071214 rev/d
Perigee alt
527.4 km
Apogee alt
550.7 km
Semi-major
6,917.2 km
B*
1.7951e-4
RAAN
50.0220°
Arg perigee
112.8379°
Mean anomaly
247.4634°
Rev number
2,254

§ Raw data

ARICA-21 68796U 26088E   26262.66985394  .00002789  00000+0  17951-3 0  99992 68796  97.5195  50.0220 0016871 112.8379 247.4634 15.09071214 22540

JSON: /api/v1/satellites/68796 · /tle

For live sub-satellite position, see the globe view (requires WebGL).

§ Visibility from observer

Set your observer location to see the next 7 days of passes ≥ 10°. The values pass through the URL so the page stays shareable.

No JS? Fill the form by hand. The geolocation button needs JavaScript.